Powrót do katalogu

ATLAS 5 CENTAUR DEB

AktywnyHEO
NORAD 46668·DEBRIS·🇺🇸 United States

Wystrzelony Oct 17, 2018 z Cape Canaveral Space Force Station

Loading…

Następne Przeloty (najbliższe 24 godziny)

TLE

ŚwieżeSource: Space-Track

Epoka: Sep 14, 2026, 10:41 UTC

1 46668U 18079CW  26257.44568377 -.00000175  00000-0  00000-0 0  9995
2 46668  13.3655  25.6104 4657913 336.8796   7.5428  1.83703400 39813

Śledź ATLAS 5 CENTAUR DEB w czasie rzeczywistym z AllMySat

Download on the App Store